FW6280 Weather Reports


Display with metric or nautical units.
time (UTC)temp
F
wind
direction
speed
MPH
gust
MPH
rain 1hr
in
rain 24hr
in
rain mn
in
humidity
%
barometer
mb
20260904010100 58 360 8.0 19.0 0.00 0.18 0.18 95 1008.7
20260904004524 59 360 6.0 13.0 0.00 0.18 0.18 95 1008.9
20260904003032 59 360 6.0 16.0 0.00 0.18 0.18 95 1008.9
20260904001608 60 360 7.0 16.0 0.03 0.18 0.18 95 1008.8
20260904000021 60 188 5.0 17.0 0.06 0.19 0.18 95 1008.8
20260903234546 60 360 9.0 21.0 0.12 0.19 0.18 95 1008.8
20260903233055 59 360 7.0 13.0 0.16 0.19 0.18 94 1009.0
20260903231516 58 360 5.0 13.0 0.13 0.16 0.15 93 1009.6
20260903230038 58 360 8.0 14.0 0.10 0.14 0.12 92 1009.4
20260903224500 60 360 5.0 13.0 0.03 0.07 0.05 89 1009.6
20260903223027 61 360 7.0 13.0 0.00 0.04 0.02 85 1009.6
20260903221554 63 360 8.0 18.0 0.00 0.04 0.02 82 1009.5
20260903220015 63 360 8.0 22.0 0.00 0.07 0.02 82 1009.3
20260903214540 62 360 7.0 15.0 0.00 0.07 0.02 81 1009.4
20260903213002 64 360 9.0 17.0 0.00 0.07 0.02 82 1009.5
20260903211529 65 360 8.0 18.0 0.00 0.07 0.02 82 1009.5
20260903210040 64 360 6.0 19.0 0.00 0.07 0.02 82 1009.3
20260903204605 63 360 10.0 17.0 0.00 0.07 0.02 82 1009.4
20260903203024 62 360 5.0 18.0 0.00 0.07 0.02 87 1009.5
20260903201534 63 360 7.0 17.0 0.00 0.07 0.02 88 1009.6
20260903200101 62 360 9.0 18.0 0.01 0.07 0.02 89 1009.7
20260903194524 61 360 7.0 18.0 0.01 0.07 0.02 92 1009.5
20260903193048 60 360 6.0 16.0 0.01 0.07 0.02 91 1009.7
20260903191517 60 360 8.0 21.0 0.01 0.07 0.02 89 1009.9
20260903190036 63 360 9.0 22.0 0.00 0.07 0.01 85 1009.8
20260903184609 64 360 5.0 22.0 0.00 0.07 0.01 85 1009.6
20260903183029 64 360 7.0 15.0 0.00 0.07 0.01 85 1009.6
20260903181534 64 360 9.0 20.0 0.00 0.07 0.01 85 1009.4
20260903180109 63 360 8.0 17.0 0.00 0.09 0.01 85 1009.4
20260903174524 61 360 7.0 15.0 0.00 0.09 0.01 88 1009.7
20260903173049 60 360 4.0 12.0 0.00 0.09 0.01 90 1009.6
20260903171512 61 360 6.0 16.0 0.00 0.09 0.01 91 1009.5
20260903170046 60 360 6.0 13.0 0.00 0.13 0.01 92 1009.5
20260903164502 59 360 6.0 14.0 0.00 0.13 0.01 92 1009.5
20260903163027 59 360 6.0 13.0 0.00 0.13 0.01 92 1009.8
20260903161538 58 360 4.0 12.0 0.00 0.13 0.01 92 1010.0
20260903160107 59 360 6.0 14.0 0.00 0.19 0.01 93 1010.0
20260903154527 59 360 5.0 13.0 0.00 0.19 0.01 93 1010.1
20260903153052 58 360 6.0 11.0 0.00 0.19 0.01 93 1010.0
20260903151513 58 360 4.0 12.0 0.00 0.19 0.01 94 1009.9
20260903150036 57 360 6.0 13.0 0.00 0.25 0.01 94 1009.8
20260903144609 57 360 4.0 9.0 0.00 0.25 0.01 95 1009.9
20260903143025 57 360 4.0 11.0 0.00 0.25 0.01 95 1009.8
20260903141553 57 360 4.0 8.0 0.00 0.25 0.01 96 1009.8
20260903140016 57 360 5.0 12.0 0.00 0.26 0.01 96 1009.7
20260903134541 57 360 5.0 12.0 0.00 0.26 0.01 97 1009.6
20260903133003 57 360 6.0 15.0 0.00 0.26 0.01 97 1009.5
20260903131530 57 360 7.0 15.0 0.00 0.26 0.01 97 1009.8
20260903130106 57 360 7.0 13.0 0.00 0.26 0.01 97 1010.1
20260903124515 57 360 4.0 11.0 0.00 0.26 0.01 97 1010.1
20260903123039 57 360 6.0 11.0 0.00 0.26 0.01 98 1010.2
20260903121509 57 360 5.0 11.0 0.00 0.26 0.01 97 1010.3
20260903120042 57 360 6.0 12.0 0.00 0.26 0.01 97 1010.4
20260903114558 57 360 5.0 14.0 0.00 0.26 0.01 97 1010.3
20260903113008 57 360 4.0 13.0 0.00 0.26 0.01 97 1010.5
20260903111537 57 360 6.0 14.0 0.00 0.26 0.01 97 1010.6
20260903110103 57 360 5.0 11.0 0.00 0.26 0.01 97 1010.5
20260903104518 56 360 5.0 10.0 0.00 0.26 0.01 97 1010.5
20260903103045 57 360 4.0 11.0 0.00 0.26 0.01 97 1010.5
20260903101509 57 360 5.0 9.0 0.00 0.26 0.01 97 1010.6
20260903100032 57 360 5.0 10.0 0.00 0.26 0.01 97 1010.6
20260903094544 57 360 4.0 11.0 0.01 0.26 0.01 97 1010.7
20260903093004 57 360 5.0 11.0 0.01 0.26 0.01 97 1010.9
20260903091531 57 360 2.0 5.0 0.01 0.26 0.01 97 1010.9
20260903084518 56 360 4.0 8.0 0.00 0.25 0.00 97 1011.0
20260903083046 56 360 3.0 8.0 0.00 0.25 0.00 97 1011.0
20260903081505 55 360 2.0 6.0 0.00 0.25 0.00 96 1011.0
20260903080029 55 360 3.0 8.0 0.00 0.25 0.00 96 1011.0
20260903074540 55 360 3.0 10.0 0.00 0.25 0.00 96 1011.1
20260903073001 56 360 3.0 8.0 0.00 0.25 0.00 96 1011.0
20260903071530 56 360 4.0 11.0 0.00 0.25 0.00 96 1011.1
20260903064604 56 360 3.0 10.0 0.00 0.25 0.25 96 1011.0
20260903063009 56 360 4.0 10.0 0.00 0.25 0.25 97 1011.0
20260903061555 57 360 4.0 8.0 0.00 0.25 0.25 97 1011.0
20260903060045 57 360 4.0 12.0 0.00 0.25 0.25 97 1011.0
20260903054512 57 360 5.0 11.0 0.00 0.25 0.25 97 1011.1
20260903053035 57 360 4.0 14.0 0.00 0.25 0.25 97 1011.2
20260903051600 57 360 5.0 11.0 0.00 0.25 0.25 97 1011.0
20260903050025 57 360 6.0 11.0 0.00 0.25 0.25 97 1010.9
20260903044533 56 360 4.0 11.0 0.00 0.25 0.25 97 1011.0
20260903043100 56 360 3.0 12.0 0.00 0.25 0.25 96 1010.8
20260903041531 56 360 2.0 6.0 0.00 0.25 0.25 96 1010.8
20260903040051 57 360 0.0 5.0 0.00 0.25 0.25 96 1010.6
20260903034512 57 360 2.0 9.0 0.00 0.25 0.25 96 1010.6
20260903033038 57 360 3.0 9.0 0.00 0.25 0.25 96 1010.4
20260903031505 57 360 3.0 10.0 0.00 0.25 0.25 96 1010.2
20260903030027 58 360 4.0 12.0 0.00 0.25 0.25 96 1010.1
20260903024539 58 360 6.0 12.0 0.00 0.25 0.25 95 1010.0
20260903023110 58 360 6.0 11.0 0.00 0.25 0.25 95 1010.1
20260903021525 59 360 5.0 12.0 0.00 0.25 0.25 95 1010.1
20260903020055 59 360 5.0 14.0 0.00 0.25 0.25 95 1010.1
20260903014514 59 360 7.0 13.0 0.00 0.25 0.25 95 1010.1
20260903013056 59 360 4.0 11.0 0.00 0.25 0.25 96 1009.7
20260903011614 59 360 3.0 10.0 0.00 0.25 0.25 96 1009.8